TimeMST,TemperatureF,Dew PointF,Humidity,Sea Level PressureIn,VisibilityMPH,Wind Direction,Wind SpeedMPH,Gust SpeedMPH,PrecipitationIn,Events,Conditions,WindDirDegrees,DateUTC
12:53 AM,28.0,16.0,61,29.61,10.0,West,40.3,49.5,0.00,,Clear,270,2011-11-14 07:53:00
1:53 AM,28.0,14.0,56,29.62,10.0,West,38.0,44.9,N/A,,Clear,270,2011-11-14 08:53:00
2:53 AM,26.1,12.9,58,29.65,10.0,West,25.3,36.8,N/A,,Clear,260,2011-11-14 09:53:00
3:53 AM,28.0,12.9,53,29.64,10.0,West,31.1,46.0,N/A,,Clear,260,2011-11-14 10:53:00
4:53 AM,28.0,12.9,53,29.67,10.0,West,29.9,44.9,N/A,,Clear,260,2011-11-14 11:53:00
5:53 AM,28.0,12.9,53,29.69,10.0,West,27.6,34.5,N/A,,Clear,270,2011-11-14 12:53:00
6:53 AM,28.9,12.0,49,29.68,10.0,West,28.8,35.7,N/A,,Scattered Clouds,280,2011-11-14 13:53:00
7:53 AM,30.9,9.0,40,29.67,10.0,West,26.5,40.3,N/A,,Mostly Cloudy,270,2011-11-14 14:53:00
8:53 AM,33.1,9.0,37,29.67,10.0,West,31.1,39.1,N/A,,Clear,270,2011-11-14 15:53:00
9:53 AM,36.0,6.1,29,29.63,10.0,West,41.4,52.9,N/A,,Clear,260,2011-11-14 16:53:00
10:53 AM,37.9,6.1,27,29.61,10.0,West,48.3,58.7,N/A,,Clear,260,2011-11-14 17:53:00
11:53 AM,41.0,6.1,24,29.58,10.0,West,40.3,51.8,N/A,,Clear,260,2011-11-14 18:53:00
12:53 PM,41.0,7.0,25,29.56,10.0,West,36.8,46.0,N/A,,Clear,270,2011-11-14 19:53:00
1:53 PM,41.0,9.0,27,29.55,10.0,West,42.6,51.8,N/A,,Scattered Clouds,260,2011-11-14 20:53:00
2:53 PM,41.0,10.0,28,29.55,10.0,West,40.3,50.6,N/A,,Mostly Cloudy,260,2011-11-14 21:53:00
3:53 PM,37.0,12.0,36,29.55,10.0,West,34.5,44.9,N/A,,Partly Cloudy,260,2011-11-14 22:53:00
4:53 PM,35.1,10.9,37,29.59,10.0,West,33.4,44.9,N/A,,Clear,270,2011-11-14 23:53:00
5:53 PM,34.0,8.1,34,29.63,10.0,West,24.2,47.2,N/A,,Clear,280,2011-11-15 00:53:00
6:53 PM,33.1,8.1,35,29.63,10.0,West,35.7,49.5,N/A,,Clear,280,2011-11-15 01:53:00
7:53 PM,32.0,8.1,37,29.63,10.0,West,38.0,51.8,N/A,,Clear,280,2011-11-15 02:53:00
8:53 PM,33.1,6.1,32,29.61,10.0,West,44.9,63.3,N/A,,Clear,270,2011-11-15 03:53:00
9:53 PM,33.8,6.8,32,29.66,10.0,West,38.0,57.5,N/A,,Clear,270,2011-11-15 04:53:00
10:53 PM,34.0,6.1,31,29.58,10.0,West,42.6,55.2,N/A,,Clear,270,2011-11-15 05:53:00
11:53 PM,34.0,5.0,30,29.58,10.0,West,41.4,51.8,N/A,,Clear,270,2011-11-15 06:53:00